Вернуться в каталог

BRAZILSAT B4

АктивенСвязьGEO
NORAD 26469·PAYLOAD·🇧🇷 Brazil

Запущен Aug 17, 2000 с Guiana Space Centre

Loading…

TLE

СвежийSource: Space-Track

Эпоха: Sep 14, 2026, 16:25 UTC

1 26469U 00046A   26257.68438817 -.00000074  00000-0  00000-0 0  9996
2 26469   9.4735  57.9731 0005777 198.8318 175.3790  0.99167992 95652

Отслеживайте BRAZILSAT B4 в реальном времени с AllMySat

Download on the App Store